If you wish to contribute or participate in the discussions about articles you are invited to join SKYbrary as a registered user

 Actions

Bergerac-Roumanière Airport

From SKYbrary Wiki

LFBE /
Revision as of 20:15, 16 February 2015 by Timo.Kouwenhoven (talk | contribs) (LF Airports CSV import)
(diff) ← Older revision | Latest revision (diff) | Newer revision → (diff)
Airport
ICAO: LFBE – IATA: EGC
Summary
Name Bergerac-Roumanière Airport
Region Europe
Territory France FR.gif
Location , Aquitaine
Serving Bergerac
Elevation 52.121 m
171 ft
171 ft52.121 m
Type medium airport
Coordinates 44° 49' 31.00" N, 0° 31' 7.00" E
Runways
Designator Length Width Surface ROPS
10/28 2205 m7,234.252 ft
45 m147.638 ft
ASP yes/yes


METAR
Observation LFBE 231700Z AUTO 00000KT CAVOK 16/14 Q1005 TEMPO 2500 -TSRA BKN010 BKN015CB
Station Bergerac
Date/Time 23 October 2019 17:00:00
Wind direction
Wind speed 00 kts
Lowest cloud amount broken clouds
Temperature 16°C
Dew point 14°C
Humidity 87%
QNH 1005 hPa
Weather condition n/a